Location: Olsztyn
(53.7767°N, 20.4765°E)
Time: 20:04:25
(UTC+02:00)

Envisat - Pass Details

Date: 04 March 2024
Orbit: 762 x 764 km, 98.3° (Epoch: 20 April)

Event Time Altitude Azimuth Distance (km) Brightness Sun altitude
Rises 04:24:44 0° 10° (N) 3,246 6.6 -17.5°
Reaches altitude 10° 04:27:14 10° 1° (N) 2,315 5.7 -17.2°
Maximum altitude 04:31:45 33° 299° (WNW) 1,272 3.7 -16.5°
Enters shadow 04:33:21 27° 264° (W) 1,447 3.8 -16.3°
